Location: Cahas Mountain Overlook
(37.0833°N, 80.1000°W)
Time: 19:18:41
(UTC-04:00)

Tiros 1 - Pass Details

Date: 09 February 2026
Orbit: 618 x 649 km, 48.4° (Epoch: 13 March)

Event Time Altitude Azimuth Distance (km) Brightness Sun altitude
Rises 15:07:51 0° 298° (WNW) 2,884 10.7 27.1°
Reaches altitude 10° 15:10:44 10° 316° (NW) 1,978 9.7 26.7°
Maximum altitude 15:14:02 19° 3° (N) 1,462 8.7 26.3°
Drops below altitude 10° 15:17:20 10° 50° (NE) 1,980 9.2 25.8°
Sets 15:20:13 0° 68° (ENE) 2,889 10.0 25.4°
